| time (UTC) | temp C | wind direction | speed KPH | gust KPH | rain 1hr cm | rain 24hr cm | rain mn cm | humidity % | barometer mb |
| 20260508115504 | 5 | 87 | 1.6 | 4.8 | 0.00 | 0.00 | 0.00 | 100 | 1012.9 |
| 20260508114505 | 3 | 49 | 4.8 | 4.8 | 0.00 | 0.00 | 0.00 | 100 | 1012.7 |
| 20260508114005 | 4 | 86 | 3.2 | 3.2 | 0.00 | 0.00 | 0.00 | 100 | 1012.8 |
| 20260508112004 | 4 | 86 | 0.0 | 1.6 | 0.00 | 0.00 | 0.00 | 100 | 1012.9 |
| 20260508111004 | 5 | 86 | 0.0 | 1.6 | 0.00 | 0.00 | 0.00 | 100 | 1012.7 |
| 20260508110005 | 5 | 86 | 3.2 | 4.8 | 0.00 | 0.00 | 0.00 | 100 | 1012.6 |
| 20260508105504 | 5 | 100 | 3.2 | 4.8 | 0.00 | 0.00 | 0.00 | 100 | 1012.6 |
| 20260508105004 | 5 | 75 | 1.6 | 3.2 | 0.00 | 0.00 | 0.00 | 100 | 1012.6 |
| 20260508104504 | 5 | 75 | 1.6 | 1.6 | 0.00 | 0.00 | 0.00 | 100 | 1012.5 |
| 20260508104004 | 5 | 75 | 1.6 | 3.2 | 0.00 | 0.00 | 0.00 | 100 | 1012.5 |
| 20260508103504 | 5 | 67 | 3.2 | 3.2 | 0.00 | 0.00 | 0.00 | 100 | 1012.7 |
| 20260508102504 | 6 | 78 | 1.6 | 3.2 | 0.00 | 0.00 | 0.00 | 100 | 1012.8 |
| 20260508102004 | 6 | 80 | 3.2 | 4.8 | 0.00 | 0.00 | 0.00 | 100 | 1012.8 |
| 20260508101504 | 6 | 96 | 3.2 | 4.8 | 0.00 | 0.00 | 0.00 | 100 | 1012.8 |
| 20260508101005 | 6 | 112 | 3.2 | 4.8 | 0.00 | 0.00 | 0.00 | 100 | 1012.7 |
| 20260508100004 | 6 | 76 | 8.0 | 11.3 | 0.00 | 0.00 | 0.00 | 100 | 1012.4 |
| 20260508095004 | 6 | 63 | 8.0 | 9.7 | 0.00 | 0.00 | 0.00 | 100 | 1012.5 |
| 20260508094504 | 6 | 64 | 8.0 | 12.9 | 0.00 | 0.00 | 0.00 | 100 | 1012.6 |
| 20260508093504 | 6 | 78 | 8.0 | 11.3 | 0.00 | 0.00 | 0.00 | 100 | 1012.6 |
| 20260508092504 | 6 | 80 | 8.0 | 12.9 | 0.00 | 0.00 | 0.00 | 100 | 1012.6 |
| 20260508092004 | 6 | 84 | 8.0 | 11.3 | 0.00 | 0.00 | 0.00 | 100 | 1012.8 |
| 20260508091004 | 7 | 81 | 8.0 | 14.5 | 0.00 | 0.00 | 0.00 | 100 | 1012.7 |
| 20260508085504 | 7 | 72 | 11.3 | 14.5 | 0.00 | 0.00 | 0.00 | 100 | 1012.8 |
| 20260508085004 | 7 | 89 | 9.7 | 14.5 | 0.00 | 0.00 | 0.00 | 100 | 1012.9 |
| 20260508081504 | 7 | 77 | 11.3 | 14.5 | 0.00 | 0.00 | 0.00 | 100 | 1013.1 |
| 20260508081004 | 8 | 87 | 9.7 | 16.1 | 0.00 | 0.00 | 0.00 | 100 | 1013.1 |
| 20260508080004 | 8 | 96 | 9.7 | 14.5 | 0.00 | 0.00 | 0.00 | 100 | 1013.3 |
| 20260508075004 | 8 | 83 | 12.9 | 16.1 | 0.00 | 0.00 | 0.00 | 100 | 1013.4 |
| 20260508074504 | 8 | 85 | 9.7 | 14.5 | 0.00 | 0.00 | 0.00 | 100 | 1013.4 |
| 20260508073504 | 8 | 75 | 11.3 | 16.1 | 0.00 | 0.00 | 0.00 | 100 | 1013.5 |
| 20260508072004 | 8 | 80 | 11.3 | 19.3 | 0.00 | 0.00 | 0.00 | 100 | 1013.7 |
| 20260508070504 | 8 | 77 | 6.4 | 11.3 | 0.00 | 0.00 | 0.00 | 100 | 1014.0 |
| 20260508065004 | 8 | 66 | 8.0 | 12.9 | 0.00 | 0.00 | 0.00 | 100 | 1014.1 |
| 20260508064504 | 8 | 68 | 6.4 | 9.7 | 0.00 | 0.00 | 0.00 | 100 | 1014.1 |
| 20260508061504 | 9 | 61 | 8.0 | 11.3 | 0.00 | 0.00 | 0.00 | 100 | 1014.4 |
| 20260508061004 | 9 | 59 | 8.0 | 14.5 | 0.00 | 0.00 | 0.00 | 100 | 1014.5 |
| 20260508060504 | 9 | 55 | 8.0 | 9.7 | 0.00 | 0.00 | 0.00 | 100 | 1014.4 |
| 20260508055504 | 9 | 51 | 8.0 | 8.0 | 0.00 | 0.00 | 0.00 | 100 | 1014.5 |
| 20260508055003 | 10 | 64 | 8.0 | 9.7 | 0.00 | 0.00 | 0.00 | 100 | 1014.6 |
| 20260508054504 | 10 | 48 | 6.4 | 8.0 | 0.00 | 0.00 | 0.00 | 100 | 1014.6 |
| 20260508053004 | 9 | 39 | 6.4 | 8.0 | 0.00 | 0.00 | 0.00 | 100 | 1014.6 |
| 20260508052504 | 9 | 33 | 8.0 | 9.7 | 0.00 | 0.00 | 0.00 | 100 | 1014.6 |
| 20260508051504 | 8 | 37 | 3.2 | 4.8 | 0.00 | 0.00 | 0.00 | 100 | 1014.6 |
| 20260508051004 | 8 | 31 | 4.8 | 8.0 | 0.00 | 0.00 | 0.00 | 100 | 1014.5 |
| 20260508050504 | 8 | 37 | 6.4 | 8.0 | 0.00 | 0.00 | 0.00 | 100 | 1014.5 |
| 20260508050004 | 8 | 40 | 6.4 | 9.7 | 0.00 | 0.00 | 0.00 | 100 | 1014.4 |
| 20260508045004 | 10 | 39 | 3.2 | 4.8 | 0.00 | 0.00 | 0.00 | 100 | 1014.2 |
| 20260508044503 | 10 | 39 | 3.2 | 4.8 | 0.00 | 0.00 | 0.00 | 100 | 1014.3 |
| 20260508044004 | 10 | 46 | 4.8 | 4.8 | 0.00 | 0.00 | 0.00 | 100 | 1014.3 |
| 20260508042503 | 8 | 14 | 3.2 | 4.8 | 0.00 | 0.00 | 0.00 | 100 | 1014.4 |
| 20260508041004 | 8 | 29 | 3.2 | 4.8 | 0.00 | 0.00 | 0.00 | 100 | 1014.3 |
| 20260508040006 | 8 | 16 | 3.2 | 4.8 | 0.00 | 0.00 | 0.00 | 100 | 1014.2 |
| 20260508035006 | 8 | 4 | 1.6 | 4.8 | 0.00 | 0.00 | 0.00 | 100 | 1014.2 |
| 20260508034506 | 8 | 59 | 0.0 | 3.2 | 0.00 | 0.00 | 0.00 | 100 | 1014.2 |
| 20260508034006 | 8 | 59 | 0.0 | 1.6 | 0.00 | 0.00 | 0.00 | 100 | 1014.0 |
| 20260508033006 | 9 | 59 | 0.0 | 1.6 | 0.00 | 0.00 | 0.00 | 100 | 1013.8 |
| 20260508032005 | 10 | 59 | 1.6 | 3.2 | 0.00 | 0.00 | 0.00 | 100 | 1013.7 |
| 20260508031005 | 11 | 59 | 0.0 | 3.2 | 0.00 | 0.00 | 0.00 | 100 | 1013.7 |
| 20260508025006 | 11 | 140 | 0.0 | 1.6 | 0.00 | 0.00 | 0.00 | 100 | 1013.5 |
| 20260508024506 | 12 | 146 | 1.6 | 3.2 | 0.00 | 0.00 | 0.00 | 100 | 1013.5 |
| 20260508022006 | 12 | 137 | 1.6 | 3.2 | 0.00 | 0.00 | 0.00 | 100 | 1013.1 |
| 20260508021506 | 13 | 84 | 1.6 | 3.2 | 0.00 | 0.00 | 0.00 | 100 | 1013.0 |
| 20260508021005 | 13 | 31 | 1.6 | 3.2 | 0.00 | 0.00 | 0.00 | 100 | 1012.9 |
| 20260508020006 | 13 | 305 | 0.0 | 3.2 | 0.00 | 0.00 | 0.00 | 100 | 1012.8 |
| 20260508015506 | 13 | 305 | 0.0 | 1.6 | 0.00 | 0.00 | 0.00 | 100 | 1012.7 |
| 20260508015005 | 14 | 294 | 1.6 | 1.6 | 0.00 | 0.00 | 0.00 | 100 | 1012.6 |
| 20260508014505 | 14 | 294 | 0.0 | 3.2 | 0.00 | 0.00 | 0.00 | 100 | 1012.6 |
| 20260508014006 | 15 | 294 | 0.0 | 3.2 | 0.00 | 0.00 | 0.00 | 100 | 1012.6 |
| 20260508013506 | 15 | 294 | 0.0 | 1.6 | 0.00 | 0.00 | 0.00 | 100 | 1012.5 |
| 20260508013005 | 16 | 249 | 0.0 | 3.2 | 0.00 | 0.00 | 0.00 | 100 | 1012.5 |
| 20260508012505 | 16 | 249 | 0.0 | 0.0 | 0.00 | 0.00 | 0.00 | 100 | 1012.5 |
| 20260508012005 | 16 | 249 | 0.0 | 3.2 | 0.00 | 0.00 | 0.00 | 100 | 1012.6 |
| 20260508011505 | 16 | 249 | 1.6 | 3.2 | 0.00 | 0.00 | 0.00 | 100 | 1012.5 |
| 20260508011005 | 16 | 249 | 1.6 | 3.2 | 0.00 | 0.00 | 0.00 | 100 | 1012.2 |
| 20260508010005 | 17 | 267 | 1.6 | 4.8 | 0.00 | 0.00 | 0.00 | 100 | 1012.2 |
| 20260508005505 | 17 | 270 | 3.2 | 4.8 | 0.00 | 0.00 | 0.00 | 100 | 1012.1 |
| 20260508004005 | 17 | 262 | 3.2 | 4.8 | 0.00 | 0.00 | 0.00 | 100 | 1012.1 |
| 20260508003506 | 17 | 271 | 3.2 | 4.8 | 0.00 | 0.00 | 0.00 | 100 | 1012.0 |
| 20260508001005 | 17 | 284 | 12.9 | 19.3 | 0.00 | 0.00 | 0.00 | 100 | 1012.0 |
| 20260508000505 | 17 | 284 | 12.9 | 19.3 | 0.00 | 0.00 | 0.00 | 100 | 1012.1 |
| 20260508000006 | 17 | 269 | 11.3 | 19.3 | 0.00 | 0.00 | 0.00 | 100 | 1012.0 |
| 20260507235505 | 17 | 259 | 11.3 | 19.3 | 0.00 | 0.00 | 0.00 | 100 | 1012.0 |
| 20260507234505 | 18 | 275 | 16.1 | 22.5 | 0.00 | 0.00 | 0.00 | 100 | 1012.2 |
| 20260507234005 | 18 | 266 | 16.1 | 25.7 | 0.00 | 0.00 | 0.00 | 100 | 1012.1 |
| 20260507233505 | 18 | 264 | 11.3 | 19.3 | 0.00 | 0.00 | 0.00 | 100 | 1012.1 |
| 20260507232505 | 18 | 263 | 14.5 | 24.1 | 0.00 | 0.00 | 0.00 | 100 | 1012.1 |
| 20260507232005 | 18 | 259 | 19.3 | 25.7 | 0.00 | 0.00 | 0.00 | 100 | 1012.0 |
| 20260507231505 | 18 | 268 | 17.7 | 29.0 | 0.00 | 0.00 | 0.00 | 100 | 1012.1 |
| 20260507230005 | 18 | 264 | 25.7 | 40.2 | 0.00 | 0.00 | 0.00 | 100 | 1012.0 |
| 20260507224505 | 18 | 218 | 16.1 | 25.7 | 0.00 | 0.00 | 0.00 | 100 | 1012.3 |
| 20260507223006 | 18 | 244 | 20.9 | 29.0 | 0.00 | 0.00 | 0.00 | 100 | 1012.3 |
| 20260507220505 | 18 | 233 | 19.3 | 32.2 | 0.00 | 0.00 | 0.00 | 100 | 1012.5 |
| 20260507220005 | 18 | 240 | 20.9 | 32.2 | 0.00 | 0.00 | 0.00 | 100 | 1012.2 |
| 20260507215505 | 18 | 236 | 17.7 | 29.0 | 0.00 | 0.00 | 0.00 | 100 | 1012.4 |
| 20260507215005 | 18 | 242 | 19.3 | 33.8 | 0.00 | 0.00 | 0.00 | 100 | 1012.5 |
| 20260507214505 | 18 | 263 | 20.9 | 29.0 | 0.00 | 0.00 | 0.00 | 100 | 1012.4 |
| 20260507214005 | 18 | 262 | 22.5 | 32.2 | 0.00 | 0.00 | 0.00 | 100 | 1012.4 |
| 20260507213505 | 18 | 243 | 22.5 | 32.2 | 0.00 | 0.00 | 0.00 | 100 | 1012.4 |
| 20260507213005 | 18 | 246 | 12.9 | 22.5 | 0.00 | 0.00 | 0.00 | 100 | 1012.5 |
| 20260507212505 | 19 | 249 | 20.9 | 27.4 | 0.00 | 0.00 | 0.00 | 100 | 1012.4 |
| 20260507212005 | 20 | 242 | 22.5 | 32.2 | 0.00 | 0.00 | 0.00 | 100 | 1012.5 |
| 20260507211005 | 19 | 250 | 14.5 | 27.4 | 0.00 | 0.00 | 0.00 | 100 | 1012.4 |
| 20260507205005 | 18 | 267 | 20.9 | 29.0 | 0.00 | 0.00 | 0.00 | 100 | 1012.7 |
| 20260507204005 | 18 | 237 | 19.3 | 29.0 | 0.00 | 0.00 | 0.00 | 100 | 1012.7 |
| 20260507202005 | 18 | 242 | 22.5 | 46.7 | 0.00 | 0.00 | 0.00 | 100 | 1013.0 |
| 20260507201504 | 18 | 264 | 25.7 | 35.4 | 0.00 | 0.00 | 0.00 | 100 | 1013.0 |
| 20260507200005 | 16 | 248 | 11.3 | 29.0 | 0.00 | 0.00 | 0.00 | 100 | 1013.2 |
| 20260507195005 | 16 | 252 | 11.3 | 20.9 | 0.00 | 0.00 | 0.00 | 100 | 1013.4 |
| 20260507194504 | 16 | 266 | 19.3 | 25.7 | 0.00 | 0.00 | 0.00 | 100 | 1013.4 |
| 20260507194004 | 16 | 269 | 22.5 | 32.2 | 0.00 | 0.00 | 0.00 | 100 | 1013.2 |
| 20260507193005 | 17 | 251 | 19.3 | 32.2 | 0.00 | 0.00 | 0.00 | 100 | 1013.3 |
| 20260507192005 | 17 | 238 | 22.5 | 37.0 | 0.00 | 0.00 | 0.00 | 100 | 1013.4 |
| 20260507191005 | 17 | 242 | 27.4 | 41.8 | 0.00 | 0.00 | 0.00 | 100 | 1013.3 |
| 20260507190505 | 18 | 266 | 25.7 | 32.2 | 0.00 | 0.00 | 0.00 | 100 | 1013.3 |
| 20260507183005 | 16 | 254 | 16.1 | 32.2 | 0.00 | 0.00 | 0.00 | 100 | 1013.6 |
| 20260507181505 | 16 | 232 | 16.1 | 25.7 | 0.00 | 0.00 | 0.00 | 100 | 1013.7 |
| 20260507181005 | 16 | 227 | 19.3 | 24.1 | 0.00 | 0.00 | 0.00 | 100 | 1013.8 |
| 20260507180005 | 17 | 265 | 19.3 | 27.4 | 0.00 | 0.00 | 0.00 | 100 | 1013.9 |
| 20260507175504 | 16 | 263 | 20.9 | 32.2 | 0.00 | 0.00 | 0.00 | 100 | 1013.9 |
| 20260507174505 | 16 | 236 | 16.1 | 33.8 | 0.00 | 0.00 | 0.00 | 100 | 1014.1 |
| 20260507174005 | 16 | 241 | 22.5 | 32.2 | 0.00 | 0.00 | 0.00 | 100 | 1014.2 |
| 20260507173505 | 16 | 256 | 27.4 | 35.4 | 0.00 | 0.00 | 0.00 | 100 | 1014.3 |
| 20260507173005 | 16 | 257 | 22.5 | 29.0 | 0.00 | 0.00 | 0.00 | 100 | 1014.4 |
| 20260507172005 | 16 | 206 | 14.5 | 32.2 | 0.00 | 0.00 | 0.00 | 100 | 1014.6 |
| 20260507170504 | 15 | 219 | 25.7 | 40.2 | 0.00 | 0.00 | 0.00 | 100 | 1014.7 |
| 20260507170005 | 15 | 224 | 11.3 | 32.2 | 0.00 | 0.00 | 0.00 | 100 | 1014.7 |
| 20260507165504 | 15 | 246 | 24.1 | 35.4 | 0.00 | 0.00 | 0.00 | 100 | 1014.7 |
| 20260507164505 | 15 | 236 | 22.5 | 35.4 | 0.00 | 0.00 | 0.00 | 100 | 1014.8 |
| 20260507163504 | 15 | 207 | 20.9 | 32.2 | 0.00 | 0.00 | 0.00 | 100 | 1014.9 |
| 20260507163004 | 15 | 244 | 24.1 | 37.0 | 0.00 | 0.00 | 0.00 | 100 | 1014.9 |
| 20260507161005 | 14 | 261 | 20.9 | 37.0 | 0.00 | 0.00 | 0.00 | 100 | 1014.9 |
| 20260507160504 | 14 | 247 | 19.3 | 25.7 | 0.00 | 0.00 | 0.00 | 100 | 1014.9 |
| 20260507152504 | 13 | 247 | 19.3 | 27.4 | 0.00 | 0.00 | 0.00 | 100 | 1015.2 |
| 20260507151005 | 13 | 222 | 17.7 | 22.5 | 0.00 | 0.00 | 0.00 | 100 | 1015.3 |
| 20260507150504 | 13 | 224 | 9.7 | 19.3 | 0.00 | 0.00 | 0.00 | 100 | 1015.4 |
| 20260507150005 | 13 | 236 | 16.1 | 29.0 | 0.00 | 0.00 | 0.00 | 100 | 1015.4 |
| 20260507145005 | 13 | 233 | 11.3 | 19.3 | 0.00 | 0.00 | 0.00 | 100 | 1015.6 |
| 20260507143505 | 12 | 247 | 16.1 | 24.1 | 0.00 | 0.00 | 0.00 | 100 | 1015.7 |
| 20260507142505 | 11 | 199 | 16.1 | 27.4 | 0.00 | 0.00 | 0.00 | 100 | 1016.2 |
| 20260507142004 | 11 | 197 | 11.3 | 22.5 | 0.00 | 0.00 | 0.00 | 100 | 1016.2 |
| 20260507141504 | 11 | 208 | 16.1 | 25.7 | 0.00 | 0.00 | 0.00 | 100 | 1016.2 |
| 20260507141004 | 11 | 212 | 14.5 | 24.1 | 0.00 | 0.00 | 0.00 | 100 | 1016.1 |
| 20260507140005 | 11 | 192 | 9.7 | 20.9 | 0.00 | 0.00 | 0.00 | 100 | 1016.1 |
| 20260507135504 | 11 | 195 | 17.7 | 25.7 | 0.00 | 0.00 | 0.00 | 100 | 1016.2 |
| 20260507135004 | 11 | 202 | 14.5 | 20.9 | 0.00 | 0.00 | 0.00 | 100 | 1016.2 |
| 20260507134004 | 11 | 205 | 9.7 | 16.1 | 0.00 | 0.00 | 0.00 | 100 | 1016.3 |
| 20260507133005 | 10 | 197 | 4.8 | 9.7 | 0.00 | 0.00 | 0.00 | 100 | 1016.4 |
| 20260507131505 | 7 | 179 | 1.6 | 4.8 | 0.00 | 0.00 | 0.00 | 100 | 1016.4 |
| 20260507125506 | 6 | 177 | 1.6 | 8.0 | 0.00 | 0.00 | 0.00 | 100 | 1016.6 |
| 20260507124004 | 4 | 124 | 6.4 | 8.0 | 0.00 | 0.00 | 0.00 | 100 | 1016.8 |
| 20260507123504 | 3 | 142 | 6.4 | 8.0 | 0.00 | 0.00 | 0.00 | 100 | 1016.9 |
| 20260507122504 | 3 | 131 | 3.2 | 4.8 | 0.00 | 0.00 | 0.00 | 100 | 1016.9 |